Simultaneous Nadir Overpasses (SNOs) Predictions

Prediction of SNOs between AQUA and NPP Satellite Orbit:

Table of predicted SNOs for the next 14.0 days since TLE Epoch: 6/20/2020
Index Date (AQUA) Time (AQUA) Lat,Lon (AQUA) SZA (AQUA ) Date (NPP) Time (NPP) Lat,Lon (NPP) SZA (NPP ) Distance(km) Time Diff (sec)
1 06/20/2020 06:21:52 -75.67, 142.62 105.25 06/20/2020 06:21:14 -75.67, 142.68 105.24 1.57 38
2 06/20/2020 07:10:59 76.55, -46.96 73.71 06/20/2020 07:11:39 76.55, -46.97 73.68 0.52 40
3 06/22/2020 22:38:12 -76.09,-100.20 105.71 06/22/2020 22:37:59 -76.10,-100.12 105.73 2.58 13
4 06/22/2020 23:27:21 76.87, 70.04 73.36 06/22/2020 23:28:26 76.87, 70.06 73.31 0.69 65
5 06/25/2020 14:05:29 75.23,-154.46 75.38 06/25/2020 14:04:25 75.24,-154.42 75.42 1.24 64
6 06/25/2020 14:54:39 -76.12, 15.77 105.66 06/25/2020 14:54:52 -76.12, 15.71 105.65 1.96 13
7 06/28/2020 06:21:48 75.71, -37.23 74.97 06/28/2020 06:21:09 75.72, -37.15 74.97 2.48 39
8 06/28/2020 07:10:59 -76.54, 133.00 106.02 06/28/2020 07:11:37 -76.53, 133.00 106.05 0.28 38
9 06/30/2020 22:38:16 75.74, 78.72 75.12 06/30/2020 22:38:03 75.73, 78.66 75.14 1.85 13
10 06/30/2020 23:27:19 -76.94,-109.70 106.32 06/30/2020 23:28:22 -76.94,-109.63 106.39 1.84 63
11 07/03/2020 14:05:37 -74.85, 24.54 103.64 07/03/2020 14:04:32 -74.85, 24.46 103.57 2.30 65




NCC Satellite Simultaneous Nadir Overpasses (SNOs) Prediction Service
